Theta_e
286 286 286 286 285 285 285 285 285 285 285 285 284 284 284 284 284 284 284 284 284 284 284 284 284 284 284 284 284 284 284 285 285 286 286 286 286 287 287 287 287 287 287 288 288 288 288 288 288 288 288 288 289 289 289 289 289 290 290 290 290 290 290 291 291 292 292 292 292 293 293 293 293 292 292 292 292 292 292 292 292 292 292 292 292 293
286 286 286 286 285 285 285 285 285 285 285 284 284 284 284 284 284 284 284 284 284 285 285 284 284 284 284 284 283 283 284 284 285 285 286 286 286 286 286 287 287 287 287 287 287 287 288 288 288 288 288 288 288 289 289 289 289 289 290 290 290 290 290 291 291 291 291 291 291 291 291 291 291 291 291 291 291 291 291 291 291 292 292 292 292 293
286 286 286 285 285 285 285 285 285 285 284 284 284 284 284 284 284 284 284 284 285 285 285 284 284 284 283 283 283 283 283 284 284 285 285 285 286 286 286 286 286 286 287 287 287 287 287 287 288 288 288 288 288 288 289 289 289 289 289 290 290 290 290 290 290 290 290 290 290 290 290 290 290 290 290 290 290 291 291 291 291 292 292 292 292 293
286 286 286 286 285 285 285 285 285 284 284 284 284 284 284 284 284 284 284 284 285 284 284 284 283 283 283 283 282 282 282 283 284 284 285 285 285 285 285 285 286 286 286 286 286 287 287 287 287 288 288 288 288 288 289 289 289 289 289 289 289 290 289 289 289 289 289 289 289 289 289 289 289 290 290 290 290 290 291 291 291 291 292 292 292 292
286 286 286 285 285 285 285 285 285 284 284 284 284 284 284 284 284 284 284 284 284 284 284 283 283 282 282 282 282 282 282 283 283 284 284 284 284 285 285 285 285 285 286 286 286 286 287 287 287 287 288 288 288 288 288 289 289 289 289 289 289 289 289 289 288 289 289 289 289 289 289 289 289 289 289 290 290 290 290 291 291 291 291 292 292 292
286 286 286 285 285 285 285 285 284 284 284 284 284 284 284 284 284 284 284 284 284 283 283 282 282 282 282 282 282 282 282 282 283 283 283 283 284 284 284 284 285 285 285 286 286 286 287 287 287 287 287 288 288 288 288 288 288 288 288 288 288 288 288 288 288 288 288 288 288 288 288 289 289 289 289 289 290 290 290 290 290 291 291 291 291 291
285 286 286 285 285 285 285 284 284 284 284 284 284 284 284 284 284 284 284 284 283 282 282 282 281 281 281 281 281 281 282 282 282 282 282 282 283 283 284 284 284 285 285 285 286 286 286 287 287 287 287 287 287 288 288 288 288 288 288 287 287 287 287 288 288 288 288 288 288 288 288 288 288 289 289 289 289 289 290 290 290 290 290 291 291 291
285 285 285 285 285 285 284 284 284 284 284 284 283 284 284 284 284 284 283 283 282 282 281 281 281 281 281 281 281 281 281 281 282 282 282 282 282 283 283 284 284 285 285 285 286 286 286 286 286 287 287 287 287 287 287 287 287 287 287 287 287 287 287 287 287 287 287 287 288 288 288 288 288 288 289 289 289 289 289 289 290 290 290 290 291 291
285 285 285 285 285 284 284 284 284 284 284 284 284 284 284 284 284 283 282 282 281 281 281 281 281 281 281 281 281 281 281 281 282 282 282 282 283 283 283 283 284 284 285 285 285 285 286 286 286 286 286 286 286 286 286 286 286 286 286 286 286 286 286 286 287 287 287 287 287 287 288 288 288 288 288 288 289 289 289 289 289 290 290 290 291 291
286 285 285 285 285 284 284 284 284 284 284 284 284 284 284 284 283 282 281 281 281 281 281 281 281 281 281 281 281 281 281 281 282 282 282 282 283 283 283 284 284 284 284 285 285 285 285 285 285 285 285 285 285 285 285 285 285 285 285 285 285 285 286 286 286 286 286 287 287 287 287 288 288 288 288 288 289 289 289 289 289 290 290 290 290 291
285 285 285 285 284 284 284 284 284 284 284 284 284 284 283 283 282 282 281 281 281 281 281 281 281 281 281 281 281 281 282 282 282 282 282 283 283 283 283 283 283 284 284 284 284 284 284 284 284 284 284 284 284 284 284 284 284 284 285 285 285 285 285 285 286 286 286 286 287 287 287 288 288 288 288 289 289 289 289 289 290 290 290 290 290 290
285 285 285 284 284 284 284 284 284 284 285 284 284 283 282 282 282 281 281 281 281 281 281 281 281 281 281 281 281 282 282 282 282 282 282 283 283 283 283 283 283 283 283 283 283 283 283 283 283 283 283 283 283 283 284 284 284 284 284 284 284 284 285 285 285 286 286 286 287 287 287 288 288 288 288 288 289 289 289 289 289 289 290 290 290 290
285 285 284 284 284 284 284 284 285 285 284 284 283 282 282 282 281 281 281 281 281 281 281 281 281 281 281 282 282 282 282 282 283 283 283 283 283 283 283 283 283 283 283 283 282 282 282 282 282 282 282 282 282 283 283 283 283 283 283 283 284 284 285 285 285 286 286 287 287 287 287 287 288 288 288 288 288 288 289 289 289 289 289 290 290 290
285 285 284 284 284 284 285 285 285 284 283 283 282 282 282 281 281 281 281 281 281 281 281 281 281 281 282 282 282 283 283 283 283 283 283 283 283 283 283 283 283 282 282 282 282 282 282 282 282 282 282 282 282 282 281 282 282 282 283 283 284 285 285 285 286 286 286 287 287 287 287 287 287 288 288 288 288 288 288 289 289 289 289 289 290 290
285 285 284 285 285 285 285 285 284 283 283 282 282 282 281 281 281 281 281 281 281 281 281 282 282 282 282 283 283 283 283 283 283 283 283 283 283 283 283 282 282 282 282 282 281 281 281 281 281 281 281 281 281 281 281 282 282 283 283 284 284 285 285 285 286 286 286 286 286 287 287 287 287 287 288 288 288 288 288 289 289 289 289 289 289 290
285 285 285 285 285 285 285 284 283 283 282 282 282 282 281 281 281 281 281 281 281 282 282 282 282 283 283 283 283 283 283 283 283 283 283 283 283 282 282 282 282 281 281 281 281 281 281 281 281 281 281 281 281 281 282 282 283 283 284 284 284 285 285 285 285 286 286 286 286 287 287 287 287 287 287 287 288 288 288 288 288 289 289 289 289 289
286 286 286 285 285 284 284 283 283 282 282 282 282 281 281 281 281 281 281 282 282 282 282 282 283 283 283 283 283 283 283 283 283 283 282 282 282 282 282 281 281 281 281 281 281 281 281 281 281 281 281 281 281 281 282 282 283 283 284 284 284 285 285 285 285 286 286 286 286 286 287 287 287 287 287 287 287 288 288 288 288 288 288 289 289 289
286 286 285 284 284 283 283 283 282 282 282 282 282 281 281 282 282 282 282 282 282 282 282 283 283 283 283 283 283 283 283 283 282 282 282 282 281 281 281 281 281 281 281 281 281 281 281 281 281 281 281 281 281 282 282 283 283 283 284 284 284 284 285 285 285 286 286 286 286 286 286 287 287 287 287 287 287 287 287 288 288 288 288 288 289 289
285 285 284 284 283 283 283 282 282 282 282 282 282 282 282 282 282 282 282 282 283 283 283 283 283 283 283 283 283 283 283 282 282 281 281 281 281 281 281 281 281 281 280 280 280 280 280 281 281 281 281 281 281 282 282 282 283 283 283 284 284 284 285 285 285 285 286 286 286 286 286 286 287 287 287 287 287 287 287 287 288 288 288 288 288 288
284 284 283 283 283 283 282 282 282 282 282 282 282 282 282 282 282 283 283 283 283 283 283 283 283 283 283 283 283 282 282 282 281 281 281 281 281 281 281 280 280 280 280 280 280 280 280 280 281 281 281 281 281 281 282 282 283 283 283 284 284 284 285 285 285 285 285 286 286 286 286 286 286 287 287 287 287 287 287 287 287 287 288 288 288 288
284 283 283 283 283 283 282 282 282 282 282 282 282 282 283 283 283 283 283 283 283 283 283 283 283 283 283 282 282 282 281 281 281 280 280 280 280 280 280 280 280 280 280 280 280 280 280 281 281 281 281 281 281 281 282 282 283 283 283 284 284 284 284 285 285 285 285 285 286 286 286 286 286 286 286 287 287 287 287 287 287 288 288 288 288 288
284 283 283 283 283 283 283 282 282 282 282 283 283 283 283 283 283 283 283 283 283 283 283 283 282 282 282 281 281 281 281 280 280 280 280 280 280 280 280 280 280 280 280 280 280 281 281 280 280 281 281 281 281 282 282 282 283 283 283 283 284 284 284 284 285 285 285 285 285 285 286 286 286 286 286 287 287 287 287 287 287 288 288 288 288 288
284 284 283 283 283 283 283 283 283 283 283 283 283 283 283 283 283 283 283 283 283 283 282 282 282 281 281 281 281 280 280 280 280 280 280 280 280 280 280 280 280 280 280 280 281 281 281 280 280 281 281 281 281 281 282 282 282 283 283 283 283 284 284 284 284 285 285 285 285 285 285 286 286 286 286 286 286 287 287 287 287 287 287 287 287 287
284 283 283 283 283 283 283 283 284 284 284 285 285 285 284 284 284 283 283 283 282 282 281 281 281 281 281 280 280 280 280 280 280 280 280 280 280 280 280 280 280 280 280 281 281 281 281 281 281 281 281 281 281 281 281 282 282 282 283 283 283 283 284 284 284 284 284 285 285 285 285 285 285 286 286 286 286 286 286 286 286 287 287 287 287 287
283 283 283 283 283 283 284 284 285 285 285 285 285 284 284 283 283 282 282 281 281 281 281 281 281 280 280 280 280 280 280 280 280 280 280 280 280 280 280 280 280 280 280 280 281 281 281 281 281 281 281 281 281 281 281 282 282 282 282 283 283 283 283 283 284 284 284 284 284 285 285 285 285 285 285 285 285 286 286 286 286 286 287 287 287 287
283 283 283 284 284 284 285 285 285 285 284 284 283 283 282 282 282 282 282 281 281 281 281 280 280 280 280 280 280 279 280 280 280 280 280 280 280 280 280 280 280 280 280 280 280 280 281 281 281 281 281 281 281 281 281 281 281 282 282 282 282 283 283 283 283 284 284 284 284 284 284 284 284 285 285 285 285 285 286 286 286 286 287 287 287 287
283 283 283 284 284 284 283 283 283 283 283 282 282 282 282 282 282 282 281 281 281 281 280 280 280 280 279 279 280 280 280 280 280 280 280 280 280 280 280 280 280 280 280 280 280 280 281 281 281 281 281 281 281 281 281 281 281 281 282 282 282 282 283 283 283 283 283 283 283 283 284 284 284 284 284 285 285 285 285 286 286 286 286 286 287 287
283 283 283 283 282 282 282 282 281 281 281 281 281 281 282 281 281 281 281 281 280 280 280 280 279 279 279 280 280 280 280 280 280 280 280 280 280 280 280 280 280 280 280 280 280 280 280 280 280 280 280 280 280 280 280 281 281 281 281 281 282 282 282 282 282 282 282 283 283 283 283 284 284 284 284 285 285 285 285 285 286 286 286 286 286 286
282 282 282 282 281 281 281 281 280 280 280 280 280 281 281 281 281 281 280 280 280 279 279 279 279 279 280 280 280 280 280 280 280 280 280 280 280 280 280 280 280 280 280 280 280 280 280 280 280 280 280 280 280 280 280 280 280 280 281 281 281 281 281 281 282 282 282 282 283 283 283 283 284 284 284 284 284 285 285 285 285 285 285 285 286 286
281 281 281 281 281 280 280 280 280 280 280 279 280 280 280 280 280 280 280 280 279 279 279 279 280 280 280 280 280 280 280 280 280 280 280 280 280 280 280 280 280 280 280 280 280 280 280 280 280 280 280 280 280 280 280 280 280 280 280 280 280 280 281 281 281 281 282 282 282 283 283 283 283 283 284 284 284 284 284 284 285 285 285 285 285 285
280 280 280 280 280 280 279 279 279 279 279 279 279 279 279 279 279 279 279 279 279 279 279 280 280 280 280 280 280 280 280 280 280 280 280 280 280 280 280 280 280 280 280 280 280 280 280 280 280 280 280 280 280 280 280 280 280 280 280 280 280 280 281 281 281 281 282 282 282 282 282 283 283 283 283 283 283 283 284 284 284 284 284 285 285 285
280 280 279 279 279 279 279 279 279 279 279 279 279 279 279 279 279 279 279 280 280 280 280 280 280 280 280 280 280 280 280 280 280 280 280 280 280 280 280 280 280 280 280 280 280 280 280 280 280 280 280 280 280 280 280 280 280 280 280 280 280 280 280 281 281 281 281 281 281 282 282 282 282 282 282 283 283 283 283 283 284 284 284 284 284 284
279 279 279 279 279 279 279 279 279 279 279 279 279 279 279 279 279 279 279 279 280 280 280 280 280 279 279 279 279 279 279 280 280 280 280 280 280 280 280 280 280 280 280 280 280 280 280 280 280 280 280 280 280 280 280 280 280 280 280 280 280 280 280 280 280 280 281 281 281 281 281 281 281 282 282 282 282 282 283 283 283 283 284 284 284 284
279 279 279 279 279 279 279 279 279 279 279 279 279 279 279 279 279 279 279 279 279 279 279 279 279 279 279 279 279 279 279 279 279 280 280 280 280 280 280 280 280 279 279 279 279 279 279 279 280 280 280 280 280 280 280 280 280 280 280 280 280 280 280 280 280 280 280 280 280 280 281 281 281 281 281 281 281 282 282 282 283 283 283 284 284 284
279 279 279 279 279 279 279 279 279 279 279 279 279 279 279 279 279 279 279 279 279 279 279 279 279 279 279 279 279 279 279 279 279 279 279 280 279 279 279 279 279 279 279 279 279 279 279 279 280 280 280 280 280 280 280 280 280 280 280 280 280 280 280 280 280 280 280 280 280 280 280 280 280 280 281 281 281 281 282 282 283 283 284 284 284 285
278 278 278 279 279 279 279 279 279 279 279 279 279 279 279 279 279 279 279 279 279 279 279 279 279 279 279 279 279 279 279 279 279 279 279 279 279 279 279 279 279 279 279 279 279 279 279 279 279 280 280 280 280 280 280 280 280 280 280 280 280 280 280 280 280 280 280 280 280 280 280 280 281 281 281 281 281 282 282 283 283 283 284 284 284 285
278 278 278 279 279 279 279 278 278 278 278 279 279 279 279 279 279 279 279 279 279 279 279 279 279 279 279 279 279 279 279 279 279 279 279 279 279 279 279 279 279 279 279 279 279 279 279 279 279 280 280 280 280 280 280 280 280 281 280 280 280 280 280 280 280 280 281 281 281 281 281 281 281 281 281 281 282 282 282 282 283 283 283 283 283 284
278 278 278 278 278 278 278 278 278 278 278 278 278 278 278 278 278 278 278 278 278 278 278 278 279 279 279 279 279 279 279 279 279 279 279 279 279 279 279 279 279 279 279 279 279 279 279 279 279 280 280 280 280 280 280 280 280 280 280 280 280 280 281 281 281 281 281 281 281 281 281 281 281 281 281 281 281 281 282 282 282 282 282 282 283 283
278 278 278 278 278 278 278 278 278 278 278 278 278 278 278 278 278 278 278 278 278 278 278 278 279 279 279 279 279 279 279 279 279 279 279 279 279 279 279 279 279 279 279 279 279 279 279 279 279 279 280 280 280 280 280 280 280 280 280 280 281 281 281 281 281 281 281 281 281 281 281 281 281 281 281 281 281 281 281 281 282 282 282 282 282 282
278 278 278 278 278 278 278 278 278 278 278 278 278 278 278 278 278 278 278 278 279 279 279 279 279 279 279 279 279 279 279 279 279 279 279 279 279 279 279 279 279 279 279 279 279 279 279 279 279 279 279 280 280 280 280 280 280 280 281 281 281 281 281 281 281 281 281 281 281 281 281 281 281 281 281 281 281 281 281 282 282 282 282 282 282 282
278 278 278 278 278 278 278 278 278 278 278 278 278 278 278 278 278 278 278 278 278 279 279 279 279 279 279 279 279 279 279 279 279 279 279 279 279 279 279 279 279 279 279 279 279 279 279 279 279 279 279 279 280 280 280 280 280 281 281 281 281 281 281 281 281 281 281 281 281 281 281 281 281 281 282 282 282 282 282 282 282 282 282 282 282 282
278 278 278 278 278 278 278 278 278 278 278 278 278 278 278 278 278 278 278 278 278 279 279 279 279 279 279 279 279 279 279 279 279 279 279 279 279 279 279 279 279 279 279 279 279 279 279 279 279 279 279 280 280 280 280 280 280 281 281 281 281 281 281 281 281 282 282 282 282 282 282 282 282 282 282 282 282 282 282 282 282 282 282 282 282 283
277 277 277 277 277 278 278 278 277 278 278 278 278 278 278 278 278 278 278 278 278 279 279 279 279 279 279 279 279 279 279 279 279 280 280 280 280 280 279 279 279 279 279 279 279 279 279 279 279 280 280 280 280 280 280 280 281 281 281 281 281 281 281 281 282 282 282 282 282 282 282 282 282 282 282 282 282 282 282 282 282 283 283 283 283 283
277 277 277 277 278 277 277 277 277 277 277 277 277 278 278 278 278 278 278 278 278 278 279 279 279 279 279 279 279 279 280 280 280 280 280 280 280 280 280 280 280 280 279 279 279 279 280 280 280 280 280 280 280 280 280 281 281 281 281 281 281 281 281 282 282 282 282 282 282 282 282 282 282 282 282 282 282 282 282 282 282 282 282 283 283 283
277 277 278 278 277 277 277 277 277 277 277 277 277 277 278 278 278 278 278 278 278 278 278 278 279 279 279 279 279 280 280 280 280 280 280 280 280 280 280 280 280 280 280 280 280 279 280 280 280 280 280 280 280 280 280 281 281 281 281 281 281 281 281 282 282 282 282 282 282 282 282 282 282 282 282 282 282 282 282 282 282 282 283 283 283 283
278 278 277 277 277 277 277 277 277 277 277 277 277 277 278 278 278 278 278 278 278 278 278 278 279 279 279 279 279 279 279 279 280 280 280 280 280 280 280 280 280 280 280 280 280 280 280 280 280 280 280 280 280 281 281 281 281 281 281 281 281 282 282 282 282 282 282 282 282 282 282 282 282 282 282 282 282 282 283 283 283 283 283 283 283 283
277 277 277 277 277 277 277 277 277 277 277 277 277 277 277 278 278 278 278 278 278 278 278 278 278 279 279 279 279 279 279 279 280 280 280 280 280 280 280 280 281 280 280 280 280 280 280 280 280 280 280 281 281 281 281 281 281 281 281 281 282 282 282 282 282 282 282 282 282 282 282 282 282 282 282 283 283 283 283 283 283 283 283 283 284 284
277 277 277 277 277 277 277 277 277 277 277 277 277 277 277 278 278 278 278 278 278 278 278 278 278 278 279 279 279 279 279 279 280 280 280 280 280 281 281 281 281 281 281 281 281 281 281 281 281 281 281 281 281 281 281 281 281 281 281 281 282 282 282 282 282 282 282 282 282 282 282 282 282 283 283 283 283 283 284 284 284 284 284 284 284 284
277 277 276 276 277 277 277 277 277 277 277 277 277 277 277 277 278 278 278 278 278 278 278 278 278 278 279 279 279 279 279 279 280 280 280 280 281 281 281 281 281 281 281 281 281 281 281 281 281 281 281 281 281 281 281 281 281 282 282 282 282 282 282 282 282 283 283 283 283 283 283 283 283 283 283 283 284 284 284 284 284 284 284 285 285 285
276 276 276 276 276 277 277 277 277 277 277 277 277 277 277 277 277 278 278 278 278 278 278 278 278 278 278 279 279 279 279 280 280 280 280 280 281 281 281 281 281 281 281 281 281 281 281 281 282 282 282 282 282 282 282 282 282 282 282 282 282 283 283 283 283 283 283 283 283 283 284 284 284 284 284 284 284 284 284 284 285 285 285 285 285 285
276 276 276 276 276 276 277 277 277 277 277 277 277 277 277 277 277 277 277 278 278 278 278 278 278 278 279 279 279 279 280 280 280 280 280 281 281 281 281 281 281 281 281 281 281 281 282 282 282 282 283 283 283 283 283 283 283 283 283 283 283 283 283 283 284 284 284 284 284 284 284 284 284 284 284 284 284 285 285 285 285 285 285 285 285 285
Wind_Speed
12 13 14 15 16 17 18 18 19 20 21 22 22 22 22 22 22 22 22 22 22 23 23 23 24 24 24 24 24 23 23 23 23 23 23 23 23 23 23 23 23 23 23 23 24 24 24 24 24 24 24 24 24 24 24 24 24 24 24 24 24 24 25 25 25 25 25 25 25 26 26 26 26 26 27 27 27 27 28 28 29 29 30 30 30 31
13 13 13 14 15 16 17 18 18 19 20 21 22 22 23 23 23 23 23 22 22 22 23 23 24 24 24 24 24 24 23 23 23 23 23 23 23 23 23 23 24 24 24 24 24 24 24 24 24 24 24 24 24 24 24 24 24 24 24 24 24 25 25 25 25 25 25 26 26 26 26 27 27 27 27 28 28 28 28 29 29 29 29 29 29 29
12 12 12 13 14 15 16 17 18 18 19 20 21 22 23 23 24 24 23 23 22 22 22 23 23 24 24 24 24 24 23 23 23 23 23 23 23 24 24 24 24 25 25 24 24 24 24 24 23 23 23 23 24 24 24 24 24 24 24 24 25 25 25 25 26 26 26 27 27 27 27 28 28 28 28 28 28 28 28 29 29 29 29 29 29 29
12 12 13 14 14 15 16 17 17 18 19 20 21 22 22 23 23 23 23 22 22 22 22 22 23 23 24 24 25 25 24 23 23 23 23 24 24 24 25 25 25 25 25 24 24 24 23 23 23 23 23 24 24 24 25 25 25 25 25 25 25 26 26 26 27 27 27 27 28 28 28 28 28 28 28 28 28 28 28 28 28 28 28 28 28 28
12 12 13 14 14 15 15 16 17 18 19 20 21 22 22 22 22 22 22 21 21 22 22 22 22 23 24 24 25 25 24 23 23 23 24 24 24 25 25 25 25 24 24 24 24 24 23 23 24 24 24 24 24 25 25 25 25 26 26 26 26 27 27 27 27 27 28 28 28 28 28 28 28 28 28 28 28 28 28 28 27 27 27 27 27 27
13 13 13 13 14 15 16 16 17 18 20 21 21 21 21 21 21 21 20 20 20 21 22 22 23 23 23 24 25 25 24 23 23 23 24 24 24 24 24 24 24 23 23 23 24 24 24 24 24 24 24 25 25 25 26 26 26 27 27 27 28 28 28 28 27 27 27 27 27 27 27 27 27 27 27 27 27 27 27 27 27 27 27 27 27 27
14 14 14 14 14 15 16 16 17 19 20 21 22 21 21 20 19 18 19 19 20 21 22 22 23 23 23 24 24 24 24 24 24 24 24 24 23 23 23 23 23 23 23 23 23 24 24 24 24 25 25 25 26 26 27 27 27 28 28 28 28 28 28 27 27 27 26 26 26 26 26 26 26 26 26 26 26 27 27 27 27 27 27 27 27 27
15 15 15 14 15 16 16 16 18 19 20 21 21 20 19 18 17 17 18 19 20 21 22 23 23 23 23 24 24 24 24 25 25 25 24 23 23 22 22 22 22 23 23 23 23 24 24 24 25 25 26 26 27 27 28 28 29 29 29 28 28 27 27 26 26 25 25 25 25 25 25 25 25 25 26 26 26 26 26 26 27 27 27 27 27 27
17 16 15 14 15 16 17 18 19 20 21 21 19 18 18 17 18 18 19 19 20 20 21 22 23 23 23 24 24 24 24 24 24 23 23 23 23 23 23 22 22 22 23 23 23 24 24 25 26 26 27 28 28 29 29 29 29 29 28 28 27 27 26 26 25 25 25 24 24 24 25 25 25 25 25 25 26 26 26 27 27 27 27 27 28 28
16 16 15 15 15 16 18 19 21 21 20 18 17 15 15 17 18 20 21 21 20 20 20 21 22 22 23 24 24 24 24 23 23 22 22 22 22 22 22 22 22 22 23 23 24 24 25 26 27 27 28 29 29 29 29 29 29 28 27 27 26 26 26 25 25 25 25 25 24 24 25 25 25 25 25 26 26 26 27 27 27 27 27 28 28 29
15 15 15 16 16 17 17 19 20 20 17 15 14 13 14 15 17 19 21 21 21 21 20 20 21 22 23 24 25 25 24 24 24 23 22 22 22 21 21 21 22 22 23 24 24 25 26 27 27 28 29 29 29 28 28 28 27 27 27 26 26 26 26 25 25 25 25 25 25 25 25 25 26 26 26 26 27 27 27 27 28 28 28 28 28 29
14 14 15 16 17 17 17 17 17 15 12 12 12 14 15 16 17 18 19 21 21 22 21 21 21 21 22 24 25 25 24 24 24 23 23 22 22 21 21 21 22 23 24 25 26 27 27 28 28 28 28 28 28 27 27 27 27 26 26 26 26 26 26 25 25 25 25 25 25 26 26 26 27 27 27 27 27 28 28 28 28 28 28 28 29 29
14 15 15 16 16 16 15 14 12 10 9 11 13 15 17 18 18 18 19 20 21 21 22 22 22 22 22 23 23 23 23 23 23 22 22 21 20 20 21 22 23 25 26 27 27 28 28 28 27 27 27 27 27 27 27 27 27 27 26 26 26 26 26 25 25 26 26 26 26 27 27 27 27 28 28 28 28 28 28 28 28 28 28 29 29 29
14 15 15 15 15 14 12 10 9 9 11 13 15 17 18 19 20 19 19 19 20 21 21 21 22 22 22 21 21 21 21 21 21 21 20 19 20 21 22 23 24 25 26 27 28 28 28 27 27 27 28 28 29 29 29 29 28 27 26 26 26 26 26 26 26 27 27 27 27 27 28 28 28 28 28 28 28 28 28 28 28 28 29 29 29 29
14 14 14 13 12 11 9 9 10 13 15 17 18 19 19 19 19 19 18 19 20 20 20 20 21 21 19 19 18 19 19 19 19 20 20 21 21 22 23 24 25 26 26 27 28 28 28 27 27 28 30 30 31 30 29 28 27 27 26 27 27 27 27 27 27 28 28 28 28 28 28 28 28 28 28 28 28 28 28 28 29 29 29 29 29 29
14 13 12 11 10 9 10 12 14 16 18 19 19 19 19 18 18 18 18 18 19 19 19 19 19 19 19 18 17 17 18 18 18 19 21 23 23 23 23 25 26 26 26 27 27 27 27 27 28 29 30 30 30 29 28 27 27 27 27 28 28 28 28 28 28 28 28 28 28 28 28 28 28 28 28 28 28 28 28 28 29 29 29 29 29 29
13 11 9 8 9 11 14 16 17 18 19 19 18 17 17 18 18 18 18 18 18 18 17 16 14 13 15 18 18 17 18 19 20 21 23 25 25 25 24 24 25 26 26 26 26 26 27 27 28 28 29 30 30 29 28 28 28 29 29 29 29 29 29 28 28 28 28 28 28 28 28 28 28 29 29 29 29 29 29 29 29 29 29 29 29 29
9 8 9 10 13 15 17 18 18 18 18 18 17 17 17 18 18 18 18 18 18 17 16 15 14 12 12 15 18 19 19 20 22 23 24 26 26 25 24 23 24 25 25 25 26 26 26 27 27 28 29 29 29 29 29 29 30 30 30 29 29 29 29 29 29 29 29 29 29 29 29 29 29 29 29 29 29 29 29 29 29 29 29 29 29 29
9 10 12 14 16 17 17 17 17 17 16 17 17 18 18 19 19 19 19 18 17 16 16 15 15 15 16 18 21 22 22 22 23 24 24 25 26 25 23 22 22 24 25 25 26 26 26 27 28 28 29 29 29 30 30 30 30 30 30 30 30 29 29 29 29 29 29 29 29 29 29 29 29 29 29 29 29 29 29 29 29 29 29 29 29 29
14 14 15 16 17 17 17 17 16 16 16 17 18 19 20 20 20 19 19 18 17 16 15 14 15 16 18 20 23 25 24 24 23 23 24 25 25 24 22 21 22 23 24 25 25 25 26 27 28 29 29 29 29 29 29 30 30 30 30 30 30 30 30 30 30 30 30 30 29 29 29 29 29 29 28 28 28 28 28 29 29 29 29 29 29 30
17 17 17 17 16 16 16 17 17 17 18 20 20 20 20 20 20 18 17 16 15 14 14 14 15 17 19 22 24 26 26 24 23 22 22 23 23 23 22 21 21 23 24 25 25 25 25 26 27 28 29 29 29 29 30 30 30 31 31 31 31 31 31 30 30 30 30 30 30 29 29 29 29 29 28 28 28 28 28 28 28 29 29 30 30 30
18 18 18 17 16 17 17 18 19 20 22 23 22 21 21 20 18 17 16 15 14 14 14 14 16 20 22 24 26 27 26 24 22 21 20 20 22 23 21 20 20 22 23 24 25 25 25 26 27 28 28 28 29 29 30 30 31 31 31 31 31 31 31 31 30 30 30 30 30 29 29 29 29 29 29 28 28 28 29 29 28 29 29 30 30 30
18 18 18 17 17 18 19 21 22 23 23 24 23 22 21 19 18 17 16 15 16 17 18 20 22 23 24 24 25 25 24 23 21 20 18 16 19 22 21 20 20 21 23 24 25 25 25 26 26 27 27 28 28 29 30 30 31 31 31 31 31 31 31 31 31 31 30 30 30 30 30 30 29 29 29 29 29 29 29 29 29 29 29 30 30 31
16 17 17 18 18 19 20 21 22 22 22 21 20 20 19 17 17 17 18 19 20 21 22 23 23 23 22 22 22 23 22 21 19 17 16 16 19 22 22 21 21 22 24 25 25 25 25 26 26 27 27 28 28 29 30 30 30 31 31 31 30 30 30 30 31 31 31 30 30 30 30 30 30 30 30 30 30 30 30 30 30 30 30 30 30 31
17 18 19 19 19 19 19 19 19 19 19 18 18 18 18 19 20 22 24 24 23 21 20 19 19 19 20 20 20 21 21 19 17 16 15 16 19 22 22 21 21 22 24 26 25 25 25 26 27 27 27 28 28 29 29 30 30 30 30 30 30 30 30 30 30 30 30 31 31 31 31 31 31 31 31 31 31 30 30 30 30 30 30 30 30 31
17 17 17 17 17 17 17 17 18 18 19 19 20 21 22 23 23 23 23 21 19 18 17 16 16 17 18 19 19 20 20 18 17 16 16 16 19 22 23 21 21 22 25 26 26 25 25 26 27 27 27 28 28 29 29 29 29 29 29 29 29 29 30 30 30 30 31 31 32 32 32 32 32 32 31 31 31 30 30 30 30 30 30 30 30 30
15 15 15 15 15 16 16 17 18 19 20 21 21 21 21 20 20 19 18 17 16 15 14 14 14 15 17 17 18 19 20 19 18 17 17 17 19 20 22 21 21 22 24 26 26 25 25 26 27 27 28 28 28 28 28 28 27 28 28 28 29 29 30 30 31 31 32 32 32 32 32 32 32 31 31 31 31 30 30 30 30 30 30 30 30 29
15 15 14 14 15 16 17 19 20 21 21 21 20 19 18 17 16 15 15 15 15 14 14 13 13 13 14 16 18 21 22 20 19 18 17 17 16 18 20 21 21 22 24 25 27 27 25 25 26 26 27 27 27 26 26 26 26 27 28 29 29 30 30 31 31 31 31 31 31 31 31 31 31 31 31 31 30 30 30 30 30 30 29 29 28 27
15 15 15 16 18 19 20 21 22 22 21 19 17 15 14 14 14 14 15 16 15 15 15 15 14 14 15 17 20 22 22 20 18 16 15 14 15 17 20 21 21 22 22 24 26 27 25 24 23 23 24 24 24 25 25 26 27 28 29 30 30 30 30 30 30 30 30 30 30 30 30 31 31 30 30 30 30 30 30 29 29 29 28 27 26 25
16 17 18 20 21 22 22 22 21 19 17 15 13 13 13 13 14 15 16 17 16 15 15 15 16 16 16 17 17 17 17 18 15 13 13 13 14 17 20 20 21 21 21 20 18 17 20 23 22 21 22 23 24 25 27 28 28 29 29 29 30 29 29 29 29 29 29 29 30 30 30 30 30 30 30 30 30 29 29 29 28 27 26 25 25 24
19 21 22 23 23 22 21 19 17 15 14 13 13 13 13 13 13 15 16 16 16 16 16 16 16 16 16 13 10 7 9 16 16 14 14 14 16 18 19 19 20 21 20 17 9 5 11 18 22 23 22 23 25 27 28 28 28 28 28 28 29 29 29 28 28 28 29 29 29 29 29 29 29 29 29 29 29 29 29 29 28 27 26 25 25 24
22 23 24 24 23 21 19 17 15 14 13 13 14 14 13 13 13 14 15 15 15 16 16 16 16 17 16 15 11 10 13 19 21 19 17 16 17 19 19 18 19 21 21 19 15 10 8 10 19 26 26 26 26 27 28 27 27 27 27 28 28 29 29 28 28 28 28 28 29 29 29 29 29 29 29 29 29 29 29 28 27 26 25 24 24 23
23 24 24 23 21 19 17 15 14 14 14 14 14 14 14 13 13 13 14 14 15 16 16 17 17 17 18 18 18 19 22 24 23 21 18 17 17 18 19 19 20 21 22 21 21 19 15 15 20 26 28 27 27 27 27 27 26 26 26 27 28 29 29 29 28 28 28 28 28 29 29 28 28 28 28 28 28 28 28 28 27 26 25 24 24 24
23 23 22 20 18 17 15 14 14 14 14 14 14 14 14 14 14 14 15 15 16 17 17 18 18 18 18 19 20 22 24 25 23 20 18 17 17 18 20 20 21 21 22 21 21 21 21 22 23 24 25 27 28 27 27 26 26 26 26 27 28 29 29 29 28 28 28 28 29 29 29 29 29 29 29 28 28 27 27 26 26 25 24 24 24 24
21 20 19 17 16 15 15 14 14 13 13 14 14 14 14 15 15 16 16 17 17 17 18 18 19 19 19 19 20 22 24 25 24 21 19 19 19 20 21 21 22 21 20 21 21 20 20 22 24 23 23 25 27 28 27 26 26 26 27 27 27 28 28 28 28 28 28 29 29 29 29 30 30 29 29 29 28 27 26 26 26 26 26 26 25 25
18 17 16 15 14 14 15 14 14 14 14 14 14 15 15 16 16 17 17 17 18 18 19 19 20 20 21 21 22 23 26 27 26 24 22 21 21 22 22 22 22 22 20 21 21 20 19 21 23 24 23 22 23 26 28 27 26 26 27 27 27 28 28 28 28 28 28 28 28 29 29 29 29 29 29 28 28 27 27 27 27 27 27 27 27 26
15 15 14 14 14 14 14 15 15 15 15 15 16 16 16 17 17 17 18 18 19 19 20 21 21 21 22 23 24 26 27 28 28 27 27 26 25 25 24 24 24 23 21 21 21 21 21 20 21 23 22 21 21 22 26 27 28 27 27 27 27 28 28 28 28 27 27 27 27 28 28 28 28 28 28 28 27 27 27 27 27 27 27 27 27 27
13 13 13 14 14 14 14 15 15 15 15 16 17 17 18 18 19 19 20 20 20 20 21 21 22 22 23 23 25 27 29 30 31 32 31 29 28 27 26 25 25 25 23 22 22 22 21 19 16 14 17 20 23 25 27 27 27 28 28 28 28 28 28 27 27 26 25 26 26 26 27 27 27 27 28 28 28 27 28 28 28 28 27 26 26 26
13 13 14 14 14 14 14 15 16 16 17 18 19 19 19 20 20 20 20 20 20 20 21 21 22 23 24 26 27 28 28 29 30 31 30 30 29 28 27 26 26 26 25 25 24 23 22 20 18 15 15 19 23 26 28 27 27 27 28 29 29 28 27 26 25 25 25 25 26 26 27 27 27 27 28 28 27 27 27 28 28 27 26 26 26 26
13 14 14 14 14 14 15 16 16 17 18 20 20 20 20 19 19 19 19 19 19 20 20 21 22 24 24 25 25 25 26 27 28 29 29 29 29 28 28 26 26 27 26 26 25 24 22 22 23 24 23 22 23 25 27 28 28 28 27 26 26 27 28 27 27 26 26 26 26 27 27 27 27 27 27 27 26 26 26 27 27 27 26 25 25 24
13 14 14 14 15 15 15 16 17 18 19 19 20 19 19 18 19 19 20 20 20 20 20 21 22 23 24 25 25 25 25 26 26 27 27 27 27 27 27 27 28 28 27 26 25 24 23 23 24 25 26 25 26 27 27 29 29 29 27 25 26 28 30 30 29 27 26 26 26 26 26 26 26 26 26 26 26 27 27 28 28 27 26 26 25 24
13 13 14 15 15 16 17 17 18 18 18 18 18 18 18 18 18 19 20 20 21 21 21 21 22 23 25 25 25 25 24 24 25 25 25 25 25 25 26 27 27 27 26 25 25 25 25 25 25 25 26 26 25 25 27 29 30 29 27 26 27 29 30 30 28 26 25 25 25 26 26 25 26 26 27 26 27 28 28 28 28 27 26 26 26 26
14 14 15 16 17 17 17 17 17 17 17 17 17 17 18 18 18 18 19 20 21 21 21 21 21 22 24 25 26 26 25 25 24 23 23 23 24 24 25 26 27 28 27 26 25 25 26 26 26 26 26 26 25 25 26 28 30 30 28 28 26 24 22 26 27 27 25 25 25 26 26 26 26 26 27 27 27 28 28 28 28 28 27 27 27 27
15 15 16 16 16 17 17 16 16 16 16 17 17 18 18 18 18 18 19 20 20 21 21 21 21 22 22 23 25 26 27 26 24 23 22 22 22 23 24 25 26 27 27 26 25 25 26 26 27 27 27 26 25 26 27 28 29 29 29 28 27 25 23 25 28 28 27 27 27 27 27 27 27 27 27 27 27 27 26 26 27 28 28 28 28 28
15 15 15 15 16 16 16 16 17 17 17 17 17 18 18 18 18 18 19 19 20 21 21 21 20 20 20 22 24 25 26 27 26 25 24 23 22 22 22 23 25 25 26 26 26 25 24 25 27 28 27 26 25 25 26 27 28 29 30 29 28 27 28 29 29 28 27 27 27 27 27 27 27 27 26 27 27 27 26 26 27 28 29 29 29 29
14 15 15 16 16 16 17 17 17 17 17 17 18 18 18 19 19 19 19 19 20 20 20 20 19 18 19 21 22 24 25 26 27 27 26 25 24 23 23 23 23 24 25 25 26 26 26 27 28 28 27 26 26 26 27 27 27 27 29 29 28 27 28 28 28 27 27 27 27 28 28 28 26 25 25 26 27 27 27 26 27 28 28 28 29 29
14 15 15 16 16 17 17 17 17 17 17 17 18 18 19 19 19 19 19 19 19 19 19 19 19 18 19 20 21 21 22 24 26 28 28 27 27 26 25 24 23 23 23 24 25 26 27 29 30 29 27 26 25 27 29 29 28 27 27 28 27 27 27 27 28 28 28 27 28 28 29 27 26 26 26 27 27 27 27 26 26 26 27 28 28 29
14 15 16 16 17 17 17 17 17 17 17 18 18 19 19 19 18 18 18 19 19 18 19 19 19 19 20 21 21 21 21 22 24 26 27 28 28 27 26 25 24 24 24 24 25 26 27 28 30 30 29 27 25 26 28 29 29 28 27 27 27 26 27 28 29 29 28 28 28 29 29 26 25 25 26 26 27 27 27 26 26 25 26 26 27 28
15 15 16 16 16 17 17 17 17 17 18 18 19 19 19 19 18 18 18 19 19 18 18 18 19 19 20 20 21 22 22 23 24 25 26 26 26 26 26 26 26 25 25 25 25 25 26 26 27 28 28 28 27 27 28 29 29 28 28 27 26 26 26 28 29 29 28 28 28 29 28 26 25 25 25 25 25 27 28 27 27 26 25 26 26 27
15 15 16 16 16 17 17 17 17 17 18 18 19 19 20 20 19 19 18 18 18 18 18 18 18 19 20 21 21 22 22 23 23 24 25 26 26 25 25 26 26 26 25 25 24 24 23 23 23 24 24 25 27 28 28 28 29 28 27 26 26 26 26 27 28 28 27 27 27 27 27 26 26 26 26 25 25 27 28 27 26 25 25 24 25 26
16 16 16 16 16 17 17 17 18 18 18 18 19 19 20 20 20 19 19 18 18 18 18 18 18 19 19 21 21 22 22 22 23 24 25 26 25 25 25 25 25 24 23 22 21 20 19 18 18 20 22 22 23 24 26 27 27 26 26 26 26 26 25 26 27 27 27 26 25 25 25 25 24 24 23 23 23 24 25 25 26 25 24 24 24 25
Wind_Direction
282 285 290 294 299 302 303 306 308 310 311 314 315 317 318 317 317 317 317 317 316 315 315 315 315 315 315 314 314 312 309 307 305 305 306 306 305 305 304 304 303 303 302 301 300 300 299 298 298 297 296 295 295 294 293 293 291 290 289 288 288 288 287 287 287 286 285 285 285 285 285 285 285 284 284 283 283 282 281 280 280 280 279 279 279 278
284 287 291 296 300 302 302 305 307 309 310 312 314 315 315 315 315 315 315 315 315 314 314 313 313 313 313 313 313 312 309 307 306 305 305 305 305 305 304 304 303 303 302 301 301 300 299 299 298 297 296 296 295 294 294 293 292 290 289 288 288 287 287 287 287 287 287 287 286 285 285 284 284 283 283 282 282 281 280 279 278 278 278 278 277 276
287 290 293 297 300 301 302 304 307 309 309 310 311 312 313 312 312 312 313 313 313 313 312 312 312 312 312 312 312 311 309 307 305 305 305 305 305 305 304 304 303 303 302 302 301 300 300 299 298 297 297 296 295 295 294 293 292 291 290 289 288 288 288 288 288 287 287 286 285 284 284 283 282 282 281 280 280 279 278 277 277 277 277 276 276 275
288 291 295 300 301 301 301 304 307 308 309 309 309 310 310 310 309 310 310 311 311 311 311 311 312 311 311 311 311 310 309 307 305 305 305 305 305 304 304 304 303 303 303 302 302 301 300 299 299 298 297 296 296 295 294 293 292 291 291 290 290 290 289 289 288 288 287 286 285 284 283 282 281 280 279 278 278 277 276 276 276 276 276 275 275 275
288 292 297 302 303 302 303 305 307 308 308 308 308 308 308 308 307 308 309 309 310 310 310 311 311 310 310 309 309 309 308 306 305 305 305 305 305 304 304 304 304 304 303 303 302 301 301 300 299 298 297 296 295 295 294 294 293 292 292 292 291 291 291 290 289 288 286 285 284 283 282 281 280 279 278 278 277 276 275 275 275 275 275 274 274 275
288 293 297 300 301 302 303 305 306 308 308 308 307 307 307 306 306 306 307 308 309 310 310 310 310 309 308 307 308 308 307 306 305 305 305 305 305 305 305 305 304 304 303 302 302 301 300 299 298 297 296 296 295 295 295 294 294 293 293 292 292 292 291 290 289 287 286 285 283 282 281 280 280 279 278 277 276 276 275 275 275 274 274 274 274 274
289 293 297 299 300 301 302 304 306 307 308 307 307 306 305 304 304 305 307 308 310 310 310 309 309 308 308 308 308 308 308 308 308 307 307 307 307 306 306 305 304 303 302 301 300 300 299 298 297 297 296 296 295 295 295 294 294 294 293 293 292 292 291 290 289 288 287 285 284 283 282 281 280 278 277 277 276 276 275 275 275 274 274 274 274 274
289 293 297 299 301 302 303 303 305 307 307 306 305 304 303 304 305 306 308 310 310 310 311 310 310 309 309 309 310 310 310 310 310 309 309 309 308 308 306 305 303 301 300 300 299 298 298 298 297 297 296 296 295 295 295 294 294 293 293 293 292 291 291 290 289 288 287 286 285 284 283 281 280 279 278 277 277 276 275 275 274 274 274 274 273 273
287 292 296 299 302 304 304 304 305 306 306 303 301 300 302 305 309 310 311 311 311 311 311 311 311 310 310 311 312 312 311 310 308 308 308 308 307 306 305 303 302 300 299 298 298 298 297 297 297 297 296 296 296 295 294 294 293 293 293 292 292 291 290 289 289 288 287 286 286 285 284 282 281 280 280 278 278 276 276 275 274 274 274 273 273 273
286 289 294 298 300 302 302 302 303 305 305 301 298 298 302 308 313 314 314 313 312 312 312 311 311 310 311 312 313 313 311 309 307 306 305 304 303 303 302 300 299 299 298 298 298 297 297 297 297 296 296 296 295 295 294 294 293 293 293 292 292 291 290 290 289 288 288 287 286 285 284 283 282 281 280 279 278 277 277 276 275 274 274 274 273 272
286 290 295 299 301 300 298 297 299 301 302 300 299 301 305 310 314 316 315 313 313 313 312 311 310 310 310 311 312 312 310 308 307 306 306 305 304 303 301 299 298 298 298 297 297 297 296 296 296 296 296 295 295 294 294 294 293 293 293 292 292 291 290 290 289 288 288 287 286 285 284 283 283 282 281 280 279 278 278 277 276 275 275 274 273 273
287 293 297 299 300 300 297 295 295 296 298 303 307 310 310 312 313 313 311 310 310 311 311 310 309 308 308 308 309 309 309 307 306 306 306 307 306 305 304 303 302 300 299 298 297 297 296 297 297 296 296 295 295 294 294 294 293 293 293 292 292 291 291 290 289 288 288 287 286 286 285 284 283 282 282 281 280 279 278 278 277 277 276 275 274 274
289 294 297 298 297 296 293 293 294 298 305 312 314 313 311 312 312 311 307 305 305 307 308 308 308 307 307 307 307 306 306 305 305 305 305 305 306 306 305 304 303 302 301 300 298 298 297 298 298 297 295 295 295 295 295 294 294 294 293 293 292 292 291 290 290 289 288 287 287 286 286 285 284 283 283 282 281 280 279 279 278 278 277 275 275 274
293 296 296 295 293 291 289 292 300 309 312 313 312 310 309 310 311 309 306 304 304 305 306 305 304 305 306 307 307 306 305 304 304 304 304 303 304 304 304 303 301 300 300 299 298 297 298 298 298 297 296 296 296 297 297 297 297 295 294 294 293 292 292 291 290 290 289 289 288 287 287 286 285 285 284 283 282 281 280 280 279 278 277 276 275 275
295 296 293 290 289 288 292 303 311 312 310 310 310 309 309 309 309 308 306 304 304 305 306 304 303 304 305 307 307 308 306 305 304 304 303 302 302 302 303 302 300 299 298 297 296 296 297 297 296 296 297 298 298 299 299 298 296 295 294 294 293 293 292 292 291 291 290 290 289 288 288 287 286 285 284 283 283 282 281 280 279 279 278 277 276 276
293 289 284 286 289 295 303 309 311 309 308 308 309 309 309 307 306 305 303 302 303 304 305 305 305 306 307 308 309 309 309 307 306 305 304 302 302 302 302 301 300 298 297 296 295 295 296 296 296 296 297 298 299 299 298 296 295 294 294 294 294 293 293 293 292 292 291 290 290 289 288 288 287 286 285 284 283 283 282 281 280 279 278 278 277 277
286 282 283 293 300 303 305 306 306 306 306 307 307 306 305 303 302 300 298 298 299 300 300 301 303 306 308 309 310 310 311 311 309 306 304 301 301 301 301 300 298 297 296 294 293 294 295 296 296 296 297 298 298 298 297 296 295 295 295 295 294 294 293 293 293 292 292 291 291 290 289 289 288 287 286 285 284 283 282 281 280 280 279 279 278 277
284 291 301 304 303 302 303 304 304 304 305 305 305 304 301 299 297 295 293 292 292 293 294 295 296 299 303 306 307 308 310 311 310 307 303 300 300 300 301 299 296 294 294 292 292 293 294 295 295 296 297 297 297 296 295 295 295 295 295 294 294 294 294 293 293 293 292 292 292 291 291 290 289 288 287 286 284 283 282 281 280 279 279 278 277 277
301 304 305 303 301 300 300 300 302 302 303 303 302 301 299 296 294 292 290 288 286 286 288 289 291 294 296 298 301 304 307 309 308 305 302 299 299 300 301 299 296 293 292 292 292 293 294 294 295 296 296 296 296 295 295 295 295 295 295 294 294 294 294 294 293 293 293 293 292 292 291 291 290 289 288 287 286 285 283 282 281 280 279 278 277 276
304 302 300 299 299 298 297 297 298 298 298 298 296 295 293 292 291 289 287 287 285 284 283 284 287 291 294 297 299 301 305 307 306 303 300 298 298 299 300 299 296 293 292 291 292 293 294 294 295 296 296 296 296 296 295 295 295 295 295 295 294 294 294 294 294 293 293 293 293 292 292 291 291 290 289 288 287 286 285 284 282 281 280 279 278 277
300 298 296 296 296 294 293 294 294 295 295 293 290 288 287 287 287 287 287 287 287 286 285 285 288 293 297 298 298 299 302 304 303 301 298 297 296 297 299 298 296 293 292 291 293 294 294 294 294 295 295 296 296 296 296 295 295 294 294 294 294 294 294 294 293 293 293 293 292 292 292 291 291 290 289 289 288 287 285 284 284 283 282 280 279 278
294 293 293 292 290 288 289 291 292 293 293 289 286 283 283 283 284 286 288 290 291 292 293 292 294 296 297 296 295 295 298 299 298 296 297 295 294 295 298 299 297 294 292 293 294 295 295 295 294 294 295 295 295 295 295 294 294 294 294 294 294 293 293 293 293 293 292 292 292 292 292 291 291 290 289 288 288 287 286 286 285 284 283 282 281 280
291 290 291 291 289 288 289 290 291 291 290 286 282 280 280 280 283 287 292 296 298 299 299 298 297 295 294 293 292 294 295 296 295 293 293 291 292 295 299 301 299 295 293 294 296 297 297 296 295 294 294 294 294 294 294 293 293 294 293 293 293 293 293 292 292 292 292 292 292 292 291 291 291 290 290 289 289 289 288 287 286 285 284 283 282 281
293 292 292 292 291 291 291 290 290 291 292 292 291 291 293 295 299 302 304 302 301 299 298 297 297 295 294 294 294 294 294 295 294 292 289 287 289 294 298 300 299 297 295 296 298 299 299 297 296 295 295 294 294 294 294 293 292 292 292 292 292 292 292 291 291 291 291 291 291 292 292 291 291 291 291 291 290 289 288 287 286 285 284 283 282 281
293 292 292 292 292 292 291 291 293 296 301 305 309 311 312 310 306 302 299 298 298 298 299 299 298 297 297 297 296 295 295 296 296 292 287 287 290 293 296 299 299 297 297 298 300 301 300 299 297 296 296 294 294 294 293 293 292 292 292 292 292 292 291 291 291 291 292 292 292 292 292 292 292 292 291 291 290 289 288 288 287 286 285 284 283 281
293 293 292 293 293 294 294 296 299 302 305 307 307 306 305 304 301 299 298 297 298 301 303 301 298 297 297 298 297 295 297 298 297 292 287 288 291 293 296 298 298 298 298 300 302 302 301 300 299 298 297 295 294 293 293 293 293 292 292 292 292 292 292 292 292 292 292 292 292 292 292 292 292 291 291 291 290 289 289 288 287 286 285 285 284 283
294 293 292 294 296 298 300 301 301 301 301 300 300 299 300 300 299 297 295 296 300 304 304 301 297 297 298 297 296 296 297 299 296 292 288 287 288 291 294 298 300 300 300 301 302 302 301 299 298 297 296 295 294 294 294 294 293 294 294 293 293 293 293 292 292 292 292 292 292 292 291 291 291 291 291 290 290 289 289 288 288 288 287 287 286 285
291 291 292 294 295 296 298 299 299 299 298 298 298 298 298 297 296 293 292 296 301 303 299 294 293 294 296 296 296 297 298 297 295 292 290 285 283 286 292 298 301 302 302 302 302 301 300 297 296 296 296 296 296 296 296 296 295 295 295 294 294 293 293 292 292 292 291 291 291 291 291 291 291 291 290 290 290 290 290 290 289 289 289 289 287 286
287 287 289 292 295 298 301 302 302 302 302 302 301 300 298 295 292 291 292 295 297 296 290 287 286 287 290 294 296 298 297 296 296 297 297 290 285 286 293 299 302 303 304 304 304 303 300 298 296 296 297 298 298 298 298 297 296 296 295 295 294 293 293 292 292 291 292 292 291 291 291 291 291 291 291 291 291 291 290 290 290 290 290 289 287 285
296 297 299 301 304 307 309 309 309 309 310 310 306 301 298 294 291 290 291 291 289 285 282 281 283 285 289 295 298 299 297 297 300 306 308 301 293 292 297 300 301 302 305 306 307 305 302 301 300 300 300 300 300 299 298 298 297 296 295 295 294 294 293 293 293 292 293 292 292 291 291 291 291 291 291 291 291 290 290 290 290 290 289 288 286 284
310 311 311 312 313 314 315 316 316 316 317 316 312 306 302 297 293 290 289 286 281 277 277 278 281 284 288 293 297 297 294 297 301 308 310 303 295 294 298 299 299 300 302 303 304 304 304 305 304 303 303 302 301 299 298 298 296 296 295 295 294 294 294 294 294 294 293 293 292 292 291 291 291 290 290 290 290 290 290 290 290 289 288 287 285 283
314 314 315 315 317 318 320 321 321 321 320 317 314 311 306 300 295 291 287 283 280 277 277 279 281 284 285 285 282 280 285 291 297 302 306 300 295 294 297 296 296 298 299 297 293 290 297 301 303 304 304 302 301 299 298 297 296 295 295 294 294 293 294 294 294 294 294 293 293 292 292 291 290 290 290 289 289 289 288 288 288 287 286 285 283 281
313 313 314 315 318 321 323 324 324 322 319 316 313 310 305 301 296 291 287 285 282 281 280 281 282 284 284 282 280 279 282 287 293 299 302 299 295 295 296 296 295 296 297 296 291 287 286 288 296 300 301 301 299 298 297 297 296 295 294 293 292 292 293 294 294 294 293 293 293 292 292 291 290 289 289 288 287 287 287 287 286 285 283 282 280 278
311 312 314 318 321 324 325 325 323 320 317 314 310 307 303 299 296 293 290 287 285 283 280 278 279 280 281 282 282 281 283 286 291 297 300 298 295 294 296 295 295 295 297 296 294 291 289 288 292 296 299 299 299 298 296 296 295 294 293 292 291 291 292 293 293 293 292 292 292 291 291 290 290 289 289 288 287 286 285 285 284 283 281 279 277 276
313 316 320 323 325 325 324 322 320 316 314 311 308 305 302 300 297 295 293 290 288 285 282 278 275 275 276 278 280 282 284 288 292 296 297 295 293 292 294 293 293 294 294 294 294 293 292 291 292 294 296 298 298 297 296 295 295 295 294 292 291 290 291 291 292 291 291 291 290 290 289 289 289 289 289 289 288 287 286 285 285 283 281 279 277 276
320 322 324 325 324 322 320 319 317 315 312 310 308 307 305 303 300 298 296 293 291 288 285 281 278 275 274 273 274 277 281 287 291 294 293 291 289 289 290 289 290 290 290 290 291 291 291 291 292 293 294 295 296 297 297 297 297 296 295 293 292 291 291 291 290 290 289 288 288 287 287 288 288 287 287 288 287 286 286 286 285 283 281 280 278 277
324 322 321 321 320 318 317 316 315 313 312 310 309 309 307 305 303 301 299 296 294 292 289 286 283 279 276 274 274 275 278 284 287 289 289 287 286 285 284 285 286 286 285 285 287 288 289 290 292 292 292 291 292 294 297 299 300 298 295 294 293 293 291 291 289 288 287 285 285 285 285 286 285 285 286 286 286 285 285 284 283 282 281 280 279 277
320 318 317 318 318 317 315 314 313 311 310 309 309 308 308 306 305 303 302 299 297 295 294 292 289 286 283 280 278 279 280 283 285 286 287 286 284 282 280 281 282 282 281 280 281 283 285 287 289 291 291 290 290 291 293 297 298 297 296 295 294 293 291 291 289 288 285 284 283 283 283 283 283 284 284 284 284 284 284 283 282 283 282 281 280 278
316 315 315 316 316 315 313 311 310 310 309 309 308 308 308 307 306 305 304 302 300 298 297 295 293 291 290 288 286 284 284 284 285 286 287 286 284 282 279 278 279 281 280 279 278 277 278 280 281 283 286 289 290 291 292 293 293 294 295 297 296 294 292 291 290 288 286 284 283 283 283 282 282 282 282 282 281 281 281 281 281 282 282 281 280 280
315 314 314 314 314 313 311 310 309 309 308 308 308 309 308 308 308 308 307 305 303 302 300 299 298 296 294 292 290 288 286 286 287 287 288 287 286 284 280 277 277 278 279 279 277 275 274 274 276 279 281 283 286 289 290 291 291 292 294 296 295 294 294 293 291 289 287 284 282 282 282 282 281 280 280 279 279 278 277 277 279 280 279 277 276 277
315 313 313 313 312 312 311 310 309 309 308 309 309 309 309 309 310 311 310 310 308 307 306 305 303 301 299 297 294 292 291 290 290 290 290 290 289 287 284 280 278 277 278 278 277 275 273 273 275 277 278 280 282 285 286 288 289 290 291 290 289 290 292 292 291 289 287 285 283 281 281 281 281 280 279 278 277 277 276 275 275 276 276 274 271 270
313 312 312 312 311 311 310 310 310 310 309 309 308 308 309 310 311 312 311 311 310 310 310 308 306 305 304 302 300 299 297 295 295 295 294 294 293 291 287 284 280 278 276 276 276 275 274 274 274 275 277 278 280 283 285 286 288 288 287 286 287 289 292 292 290 289 287 285 284 284 283 281 281 281 280 278 278 277 277 275 275 274 273 271 269 267
311 310 310 311 311 311 311 311 310 310 309 308 307 307 308 310 311 311 310 308 308 309 309 308 306 305 304 304 305 305 304 302 301 300 298 296 295 292 290 287 284 281 278 275 274 275 276 276 274 273 274 276 277 279 282 285 287 287 286 285 286 288 290 290 291 291 289 287 285 284 283 281 280 280 280 279 278 278 277 275 275 274 270 268 267 265
310 310 311 311 311 311 312 311 310 310 308 307 307 307 309 309 309 309 308 306 305 306 306 306 306 304 302 303 305 307 308 308 307 305 302 299 298 295 292 290 287 284 279 273 271 274 278 279 277 276 276 276 276 277 279 282 284 285 285 285 284 282 281 284 287 290 289 287 285 284 282 280 280 280 281 279 278 277 275 274 272 271 269 268 266 264
311 310 311 312 312 312 311 310 310 309 308 307 307 307 309 309 309 308 307 304 303 303 304 304 305 304 303 303 306 308 310 311 310 309 308 306 304 300 296 292 289 285 281 275 271 270 272 275 278 280 280 278 276 275 275 278 281 283 284 284 283 281 279 281 283 285 285 284 284 283 282 281 281 280 280 279 278 277 275 273 271 270 269 268 266 264
313 312 312 312 312 311 310 309 309 309 308 307 307 308 309 310 309 307 305 302 301 301 302 302 301 300 300 301 304 307 309 311 312 312 312 311 309 306 301 296 292 288 283 278 275 272 270 270 274 278 280 280 278 275 274 275 277 280 282 283 283 283 282 282 282 282 282 282 282 282 282 282 281 280 278 278 278 277 276 273 271 269 269 268 266 264
313 312 312 312 311 310 309 310 310 310 309 308 307 308 309 309 309 307 304 301 300 299 300 301 299 296 295 297 300 302 304 307 309 310 311 312 311 309 306 302 297 293 288 283 279 276 273 271 271 273 274 277 278 278 278 277 277 277 279 281 283 283 283 283 283 283 282 281 280 281 281 281 281 280 278 278 278 279 278 275 273 270 269 268 266 265
313 312 311 311 310 309 309 310 310 310 308 308 308 308 309 308 307 305 303 302 301 300 300 300 299 296 295 296 297 298 300 301 303 305 308 309 310 310 308 306 303 300 295 290 285 280 277 274 272 270 268 269 271 275 277 278 277 276 277 279 280 281 280 281 282 283 283 281 279 279 279 278 277 277 278 279 280 280 280 278 276 274 271 268 267 266
312 310 310 310 309 309 309 309 309 309 308 308 308 308 308 308 306 304 302 301 301 299 298 297 296 296 296 297 297 299 300 300 300 302 304 306 308 308 308 307 307 305 302 298 294 289 285 282 278 273 267 263 263 266 271 274 275 276 276 277 277 277 277 279 282 283 283 281 279 278 277 275 273 273 275 277 279 280 281 280 279 277 274 271 269 268
311 310 309 309 308 307 307 308 308 308 307 307 307 307 307 308 307 305 303 301 299 298 296 294 294 295 296 297 298 299 300 301 301 301 302 305 306 306 306 307 307 307 306 303 301 298 296 293 289 284 276 267 262 261 263 269 273 275 277 276 276 276 277 278 281 283 283 282 280 279 277 275 273 273 274 275 277 279 281 281 281 279 277 274 271 269
311 310 310 308 307 306 306 307 307 306 305 305 305 305 306 307 307 306 305 303 300 298 296 294 293 293 294 296 297 298 300 300 300 300 302 304 305 305 304 304 305 305 304 303 303 302 302 300 298 295 292 284 274 266 263 265 270 274 277 276 277 278 278 279 281 282 282 282 281 280 279 277 275 273 272 272 275 279 282 282 282 281 280 278 275 273